Temperature
18 18 18 18 18 17 17 17 17 17 17 18 17 18 18 18 18 18 18 18 18 18 18 18 18 18 18 18 18 18 18 18 17 17 17 17 17 17 17 17 17 17 17
17 17 17 17 17 17 17 17 17 17 17 17 17 17 17 18 18 18 18 18 18 18 18 18 18 18 18 18 18 18 18 18 18 17 17 17 17 17 17 17 17 17 17
17 17 17 17 17 17 17 17 17 17 17 17 17 17 17 17 17 18 18 17 17 18 18 18 18 18 18 18 18 18 18 18 18 18 17 17 17 17 17 17 17 17 17
17 17 17 17 17 17 16 17 17 17 17 17 17 17 17 17 17 17 17 17 17 17 17 17 18 18 18 18 18 18 18 18 18 18 17 17 17 17 17 17 17 17 17
16 16 16 16 16 16 16 16 16 16 16 16 17 17 17 17 17 17 17 17 17 17 17 17 17 18 18 18 18 18 18 18 18 18 18 17 17 17 17 17 17 17 17
16 16 16 16 16 16 15 15 16 16 16 16 16 16 16 17 17 17 17 17 17 17 17 17 17 17 17 18 18 18 18 18 18 18 18 18 18 17 17 17 17 17 17
15 16 15 15 15 15 15 15 15 15 15 15 15 16 16 17 17 17 17 17 17 17 17 17 17 17 17 17 17 18 18 18 18 18 18 18 18 18 17 17 17 17 17
15 15 15 15 15 15 15 15 15 15 15 15 15 15 16 17 17 17 17 17 17 17 17 17 17 17 17 17 17 17 18 18 18 18 18 18 18 18 18 17 17 17 17
15 14 14 14 14 14 14 14 14 14 14 14 15 15 15 16 16 17 17 17 17 17 17 17 16 17 16 16 17 17 17 17 17 18 18 18 18 18 18 17 17 17 17
14 14 14 14 13 13 13 13 14 14 14 14 14 14 15 15 15 15 16 16 16 16 16 16 16 16 16 16 16 17 17 17 17 17 18 18 17 17 17 17 17 17 17
14 14 14 13 13 13 13 13 13 13 13 13 13 14 14 14 14 14 15 16 16 16 16 16 16 16 16 16 16 16 16 17 17 17 17 17 17 17 17 17 17 17 17
14 14 14 13 13 13 12 13 12 13 13 13 13 13 13 14 14 14 14 15 15 16 16 16 16 16 16 16 16 16 16 16 16 17 17 17 17 17 17 17 17 17 17
14 14 13 13 13 12 12 12 12 12 12 12 12 13 13 13 13 14 14 14 15 15 15 16 16 16 16 16 16 16 16 16 16 16 16 17 17 17 17 17 17 17 17
13 13 12 12 12 12 12 12 12 12 12 12 12 12 12 13 13 13 13 13 14 14 15 15 15 15 15 15 15 15 15 16 16 16 16 16 16 16 16 16 17 17 17
12 12 12 12 12 11 11 11 11 11 11 11 11 12 12 12 12 13 13 13 13 13 14 14 15 15 15 15 15 15 15 15 15 15 16 16 16 16 16 16 16 16 17
12 12 12 11 11 11 11 11 11 11 11 11 11 11 11 12 12 12 12 13 13 13 13 14 14 14 14 14 14 14 15 15 15 15 15 16 16 16 16 16 16 16 17
11 11 11 11 11 11 11 11 11 11 10 11 11 11 11 11 11 11 12 12 12 12 12 13 13 14 14 14 14 14 14 14 15 15 15 15 16 16 16 16 16 16 16
11 11 11 10 10 10 10 10 10 10 10 10 10 10 11 11 11 11 11 11 11 12 12 12 12 13 13 13 13 14 14 14 14 15 15 15 15 15 16 16 16 16 16
11 11 10 10 10 10 10 10 10 10 10 10 10 10 10 10 10 10 11 11 11 11 11 12 12 12 13 13 13 13 13 14 14 14 14 15 15 15 16 16 16 16 16
11 11 10 10 10 10 10 10 10 10 10 10 10 10 10 10 10 10 10 10 10 11 11 11 11 12 12 12 13 13 13 13 14 14 14 14 15 15 15 15 16 16 16
11 11 10 10 10 10 10 10 10 10 10 10 10 9 9 10 10 10 10 10 10 10 10 10 11 11 12 12 12 13 13 13 13 14 14 14 14 14 15 15 15 16 16
11 11 11 10 10 10 10 10 10 10 10 10 10 9 9 9 10 10 10 10 10 10 10 10 10 10 11 11 12 12 12 12 13 13 13 14 14 14 14 15 15 15 16
11 11 11 10 10 10 10 10 10 10 9 9 9 9 9 9 9 9 10 9 10 10 10 10 10 10 11 11 11 11 11 12 12 13 13 13 13 13 14 14 15 15 15
11 11 11 11 10 10 10 10 10 9 9 9 9 9 9 9 9 9 9 9 9 9 9 9 10 10 10 11 11 11 11 11 11 12 12 12 13 13 13 14 14 14 15
11 11 11 11 10 10 10 10 10 9 9 9 9 9 9 9 9 9 9 9 9 9 9 9 9 10 10 10 10 10 10 10 11 11 12 12 12 12 13 13 14 14 14
11 11 11 11 11 11 10 10 10 9 9 9 9 9 9 9 9 9 9 9 9 9 9 9 9 9 9 10 10 10 10 10 10 11 11 12 12 12 12 12 13 13 14
Wind_Speed
1 1 1 2 3 4 3 2 3 3 4 5 6 7 6 8 10 6 8 18 19 19 19 19 19 18 19 20 20 19 19 18 17 17 16 16 16 15 15 14 14 14 13
1 1 1 1 3 4 4 4 4 4 4 4 5 6 7 9 9 9 8 14 18 20 21 20 20 20 20 21 21 21 21 20 20 19 19 18 17 17 17 16 15 15 14
0 1 2 2 2 4 4 4 5 4 5 6 6 7 6 8 9 9 10 10 14 18 20 21 21 21 22 22 22 23 23 23 22 22 21 20 19 19 19 18 17 16 16
2 2 1 0 2 4 3 3 3 3 3 3 4 5 5 5 8 10 11 11 12 14 20 23 23 23 23 23 24 24 25 25 25 24 23 23 21 21 20 20 19 18 18
3 3 2 1 3 3 3 4 1 2 3 4 5 6 7 7 7 9 9 11 13 15 15 21 25 26 25 25 25 26 26 26 26 26 25 25 24 23 23 22 21 20 20
3 3 2 1 2 3 2 2 3 3 4 5 8 7 5 7 6 8 10 9 11 15 17 17 20 23 27 26 26 27 27 28 28 28 27 27 26 25 25 24 23 22 22
2 2 2 3 2 2 3 4 3 5 5 4 5 6 6 8 8 8 8 7 7 10 14 16 15 17 19 27 28 28 28 29 29 30 29 29 28 27 27 26 25 25 24
1 3 2 3 3 3 4 4 4 3 5 4 3 4 5 5 4 7 6 7 7 5 6 12 13 15 17 17 23 29 29 29 30 31 31 30 30 29 28 28 27 26 26
1 2 3 3 4 5 4 4 4 4 4 5 4 3 3 3 4 3 3 4 4 5 5 5 9 14 17 17 18 26 30 30 31 31 31 31 31 31 30 29 28 28 27
2 3 3 3 3 4 5 6 4 4 4 4 4 4 4 3 3 4 4 2 3 4 5 6 5 8 14 15 17 19 26 29 29 30 31 31 32 32 31 30 30 29 28
3 3 2 1 2 3 5 5 6 5 5 5 5 4 5 4 5 4 5 4 3 3 4 4 5 4 8 11 13 16 21 27 28 29 30 31 32 32 32 32 31 30 29
2 2 1 2 3 3 5 5 6 7 6 6 5 5 5 4 4 4 5 5 5 4 3 3 4 4 6 9 13 15 16 21 26 28 29 30 31 32 32 32 32 31 30
3 5 5 4 4 4 5 6 6 6 7 7 6 5 5 5 4 4 4 5 5 4 4 3 4 3 6 8 10 14 15 18 22 25 27 28 29 30 31 32 32 31 30
4 5 5 4 5 5 7 6 6 7 6 6 8 7 5 6 5 4 4 4 5 5 5 5 3 3 3 5 8 10 11 16 20 23 25 27 28 29 30 31 32 31 31
6 6 7 6 6 6 6 6 6 7 7 7 7 7 6 6 5 5 4 4 5 6 6 5 2 2 2 3 6 8 9 12 17 20 23 25 26 28 29 30 31 31 31
5 6 6 6 7 7 7 6 6 7 7 7 6 7 7 6 6 5 5 5 5 6 6 5 4 4 3 4 6 7 9 11 15 19 22 24 25 27 28 29 30 31 31
5 6 7 7 7 7 7 6 7 8 8 8 8 8 7 7 6 6 5 5 5 5 7 6 5 4 4 5 4 6 9 10 12 19 22 23 24 26 28 29 30 30 31
5 6 6 7 7 8 7 7 8 8 8 8 8 8 8 8 7 6 6 7 6 6 6 8 6 6 7 6 6 6 6 9 10 15 21 23 24 25 27 28 29 29 30
6 6 6 7 7 7 7 7 7 8 8 8 8 8 8 8 8 7 7 7 7 8 6 7 7 6 5 6 6 6 7 5 8 11 16 21 22 23 25 26 27 28 28
6 6 6 6 7 7 8 7 7 7 7 8 8 8 8 8 9 8 8 8 8 7 7 7 7 6 6 6 5 6 6 5 5 6 8 12 16 20 22 24 25 26 27
7 6 6 7 7 8 7 5 5 8 7 8 8 8 10 11 11 9 9 6 6 6 6 6 7 6 6 4 5 4 5 4 4 4 3 5 6 8 11 17 20 22 24
6 6 6 7 8 9 3 2 4 7 8 9 9 9 10 11 13 14 14 13 11 9 8 7 7 7 7 5 5 5 4 3 3 2 3 4 5 6 7 10 16 20 22
6 6 7 7 8 8 8 8 8 7 8 9 9 9 11 12 10 7 9 13 14 15 14 10 10 9 8 7 6 5 4 5 4 3 2 3 3 4 4 8 15 19 21
6 6 7 8 8 9 8 9 10 8 9 10 10 10 10 9 11 8 8 8 8 9 11 11 10 11 10 8 7 7 6 5 5 4 4 3 3 3 3 4 12 17 19
6 7 8 8 8 8 8 9 9 7 8 10 10 11 10 9 9 8 7 7 8 8 11 13 13 13 14 13 8 5 5 5 5 4 4 3 3 2 2 2 5 13 16
7 8 8 8 8 8 8 9 9 7 8 8 8 8 9 8 8 7 6 7 8 8 8 9 8 9 10 11 12 9 8 7 5 4 4 4 4 3 2 2 3 6 9
Wind_Direction
323 297 290 285 275 260 234 236 236 241 246 256 259 249 244 248 262 259 187 181 183 185 189 192 195 198 199 197 196 195 193 193 191 190 188 186 182 179 178 177 175 172 169
209 247 251 257 264 259 240 235 241 232 236 241 249 251 246 250 253 249 209 195 196 194 195 198 200 203 204 204 202 200 199 197 195 193 193 192 190 187 185 184 183 181 179
304 287 259 242 263 270 254 239 250 244 236 238 238 245 242 242 246 248 239 215 205 206 205 205 204 206 208 208 207 205 203 201 198 196 196 196 195 193 191 190 189 188 187
14 315 286 250 305 282 265 250 240 260 263 258 256 255 253 241 238 240 242 233 220 217 213 212 209 209 211 211 211 210 207 204 202 200 199 199 199 198 196 195 194 194 194
26 341 328 29 313 292 289 295 354 319 299 291 272 249 241 245 238 237 233 232 226 224 215 215 214 212 214 215 214 213 210 207 205 203 203 202 202 201 200 199 199 198 198
46 349 301 13 328 311 314 320 316 292 278 274 277 279 260 247 233 233 232 231 226 224 222 221 213 216 217 217 217 216 213 210 208 206 206 205 205 204 203 202 202 202 202
24 304 326 344 303 301 313 314 307 297 281 261 267 281 272 252 234 224 218 225 229 227 222 219 210 208 214 219 218 217 216 214 211 209 208 207 207 205 205 205 205 204 204
348 306 17 316 326 320 291 280 274 279 296 302 290 294 292 279 262 244 216 214 221 222 224 225 218 213 214 213 218 218 218 217 214 211 210 209 208 207 206 206 206 206 206
327 334 326 317 332 318 309 315 306 291 286 293 284 276 287 300 326 292 255 229 215 212 222 222 221 219 220 217 212 217 219 218 217 214 212 211 210 208 207 207 208 208 208
300 290 289 305 313 311 311 309 325 318 300 292 290 270 259 280 292 310 312 283 233 222 224 234 237 224 220 222 222 216 216 217 218 216 214 213 212 210 208 209 210 210 210
270 256 263 283 310 301 311 321 319 311 305 298 300 303 293 275 246 253 284 297 293 259 232 228 228 229 228 227 228 225 218 215 217 218 216 216 214 212 211 211 212 213 212
308 329 338 27 339 321 322 317 310 300 289 293 296 296 293 287 278 267 268 280 281 273 264 244 234 228 231 229 231 232 222 217 217 218 217 217 215 214 213 213 214 215 214
344 26 17 3 332 318 305 297 295 288 287 285 279 275 278 278 281 280 281 285 293 294 283 263 232 225 233 231 232 234 227 222 221 220 219 218 217 215 214 214 215 216 216
343 358 347 328 310 301 300 307 306 293 285 282 279 276 278 277 273 270 266 275 286 285 274 267 254 233 242 230 223 224 228 226 224 223 221 219 218 216 214 213 214 215 215
327 351 342 327 315 308 302 300 289 289 287 281 277 275 265 269 269 268 263 254 258 271 275 277 277 252 270 257 221 221 228 227 225 225 225 223 220 217 215 213 213 214 215
314 313 308 307 305 301 296 292 290 287 293 288 279 275 277 273 272 270 265 260 252 255 266 276 278 273 274 276 248 233 235 234 229 226 225 224 222 219 217 215 215 215 215
310 302 299 299 298 292 286 283 283 283 282 281 281 280 276 273 273 276 275 268 260 256 262 269 272 280 271 266 264 252 247 238 234 226 223 223 223 221 218 217 216 215 215
298 300 302 300 295 292 289 284 284 288 289 287 284 284 285 281 272 268 269 270 265 258 256 265 270 274 273 262 252 245 248 245 237 232 223 221 222 221 219 217 216 216 215
292 292 292 291 291 292 288 281 276 278 280 284 285 282 281 280 279 269 264 266 269 270 261 260 264 263 268 267 262 256 252 248 247 238 224 221 220 219 217 216 214 213 213
288 284 285 287 289 289 285 283 285 285 283 281 281 279 276 273 271 271 269 260 262 267 270 267 263 260 259 262 259 250 247 237 242 242 230 217 215 215 214 213 212 210 209
291 294 294 289 287 285 285 303 302 295 300 298 291 284 277 274 271 267 271 272 277 276 277 277 273 271 262 259 262 250 244 242 244 227 225 209 194 200 206 209 208 206 205
290 287 285 287 288 292 299 279 280 296 294 291 288 286 284 276 265 252 247 247 246 253 260 266 273 274 277 277 288 273 256 245 254 220 203 226 199 197 195 196 200 198 199
293 289 285 285 284 282 261 244 245 267 279 279 280 281 282 284 293 280 261 248 244 243 240 246 258 266 272 275 287 284 274 256 249 227 202 231 219 212 193 190 188 190 191
289 289 287 285 281 282 260 238 241 254 271 272 270 269 269 273 280 281 282 274 262 251 242 239 242 250 256 258 258 259 258 266 256 231 210 228 213 208 184 167 183 183 186
286 285 285 281 280 280 258 241 239 266 271 274 271 272 270 268 264 259 264 269 271 271 267 254 239 238 239 241 237 247 248 245 248 235 213 211 202 191 181 171 169 176 177
280 282 283 284 286 283 267 238 225 259 276 282 281 276 272 267 258 246 250 263 269 272 281 286 274 256 244 240 231 225 230 236 237 240 211 193 186 173 177 169 166 162 166
Height
1542 1543 1544 1545 1546 1547 1548 1549 1550 1550 1551 1552 1553 1554 1555 1556 1558 1560 1560 1561 1563 1565 1567 1569 1571 1572 1574 1576 1579 1581 1583 1586 1588 1590 1593 1595 1597 1599 1602 1604 1606 1608 1609
1540 1541 1541 1543 1544 1544 1545 1546 1547 1547 1548 1549 1549 1550 1551 1552 1554 1556 1557 1557 1559 1561 1563 1565 1567 1569 1571 1573 1576 1578 1581 1583 1586 1588 1591 1593 1596 1598 1600 1602 1605 1607 1609
1538 1539 1539 1540 1541 1542 1543 1543 1544 1544 1545 1545 1546 1546 1547 1548 1549 1551 1552 1553 1554 1556 1558 1560 1562 1565 1567 1570 1572 1575 1577 1580 1583 1586 1588 1591 1593 1596 1598 1601 1603 1605 1608
1537 1537 1538 1539 1539 1540 1540 1541 1541 1541 1542 1542 1542 1543 1543 1543 1544 1545 1546 1548 1549 1551 1553 1555 1558 1560 1563 1565 1568 1571 1573 1576 1579 1582 1585 1588 1591 1593 1596 1599 1601 1603 1606
1535 1536 1536 1537 1537 1538 1538 1539 1538 1538 1538 1538 1538 1539 1539 1539 1540 1540 1541 1542 1544 1546 1547 1549 1552 1554 1557 1560 1563 1566 1569 1572 1575 1578 1581 1584 1587 1590 1593 1596 1598 1601 1604
1534 1534 1535 1535 1535 1535 1536 1536 1536 1536 1536 1536 1536 1535 1535 1535 1535 1535 1536 1538 1539 1540 1542 1544 1546 1548 1551 1554 1557 1560 1564 1567 1570 1573 1577 1580 1583 1586 1589 1592 1595 1598 1601
1532 1533 1533 1533 1533 1533 1533 1533 1533 1533 1533 1533 1533 1532 1531 1531 1531 1531 1531 1533 1534 1535 1536 1538 1540 1542 1545 1548 1551 1554 1558 1561 1564 1568 1571 1575 1578 1582 1585 1588 1591 1594 1597
1531 1532 1531 1531 1531 1531 1531 1531 1530 1530 1530 1530 1530 1529 1528 1528 1527 1527 1527 1528 1529 1530 1531 1533 1534 1536 1539 1541 1544 1548 1551 1555 1558 1562 1566 1569 1573 1577 1580 1583 1587 1590 1593
1530 1530 1529 1529 1529 1528 1529 1528 1528 1527 1527 1527 1528 1528 1527 1525 1524 1523 1524 1524 1525 1526 1527 1528 1529 1531 1533 1536 1538 1541 1545 1548 1552 1556 1559 1563 1567 1571 1575 1578 1582 1585 1589
1528 1528 1527 1527 1526 1526 1526 1526 1525 1524 1524 1524 1524 1525 1525 1525 1524 1522 1521 1522 1521 1522 1523 1524 1524 1526 1528 1530 1532 1535 1538 1542 1545 1549 1553 1557 1561 1565 1569 1573 1577 1580 1584
1526 1526 1525 1524 1523 1523 1523 1522 1522 1521 1521 1521 1521 1521 1522 1522 1522 1521 1520 1519 1519 1520 1520 1520 1521 1522 1524 1525 1526 1528 1531 1535 1538 1542 1546 1550 1554 1558 1562 1566 1570 1574 1578
1524 1524 1523 1521 1520 1520 1519 1519 1518 1518 1518 1518 1518 1518 1518 1518 1518 1518 1518 1517 1517 1517 1517 1517 1517 1518 1519 1520 1521 1523 1525 1528 1531 1535 1539 1543 1547 1551 1555 1560 1564 1568 1572
1522 1521 1520 1518 1518 1517 1516 1516 1515 1515 1514 1514 1514 1514 1515 1515 1515 1515 1515 1514 1514 1513 1513 1513 1514 1514 1514 1515 1516 1518 1520 1521 1524 1528 1531 1535 1539 1544 1548 1552 1557 1561 1565
1519 1518 1517 1516 1515 1514 1513 1512 1511 1511 1511 1510 1510 1510 1510 1510 1511 1511 1511 1511 1510 1510 1510 1510 1510 1510 1510 1510 1511 1512 1514 1516 1518 1521 1524 1528 1532 1536 1540 1545 1549 1554 1559
1516 1515 1513 1512 1511 1510 1509 1508 1508 1507 1507 1506 1506 1506 1506 1506 1507 1507 1507 1508 1508 1507 1506 1506 1506 1506 1506 1506 1506 1507 1508 1509 1511 1514 1517 1520 1524 1528 1532 1537 1542 1547 1552
1512 1511 1510 1509 1508 1507 1506 1505 1504 1503 1503 1502 1502 1502 1502 1502 1502 1502 1502 1503 1503 1503 1502 1502 1502 1502 1502 1501 1501 1502 1502 1504 1505 1507 1509 1513 1516 1520 1524 1529 1534 1539 1544
1510 1508 1507 1506 1504 1503 1502 1501 1500 1500 1499 1498 1498 1497 1497 1497 1497 1497 1497 1498 1498 1498 1497 1497 1498 1498 1498 1497 1497 1497 1497 1498 1499 1500 1503 1506 1509 1512 1516 1521 1526 1531 1537
1507 1505 1504 1502 1501 1500 1499 1498 1497 1496 1495 1494 1493 1493 1492 1492 1492 1492 1492 1492 1493 1493 1493 1492 1492 1493 1493 1493 1492 1492 1492 1492 1493 1494 1496 1498 1501 1505 1509 1513 1518 1524 1529
1504 1503 1501 1499 1498 1497 1495 1494 1493 1492 1491 1490 1489 1488 1488 1487 1487 1487 1487 1487 1487 1488 1488 1487 1487 1487 1487 1488 1487 1487 1487 1487 1487 1488 1489 1491 1494 1497 1501 1505 1510 1515 1521
1501 1500 1498 1497 1495 1493 1492 1491 1489 1488 1487 1485 1484 1483 1483 1482 1482 1482 1481 1481 1482 1482 1482 1482 1482 1482 1482 1482 1482 1482 1481 1482 1482 1483 1483 1485 1488 1491 1494 1498 1503 1508 1513
1499 1497 1495 1494 1492 1490 1489 1487 1486 1484 1483 1481 1479 1478 1477 1477 1476 1476 1476 1476 1476 1476 1476 1476 1476 1477 1477 1477 1477 1477 1476 1476 1477 1478 1478 1479 1482 1484 1487 1491 1495 1499 1504
1496 1494 1492 1490 1488 1487 1486 1483 1482 1479 1477 1475 1473 1472 1472 1471 1471 1470 1470 1470 1470 1470 1470 1471 1471 1471 1471 1472 1472 1472 1472 1472 1472 1473 1473 1475 1476 1478 1481 1484 1488 1492 1497
1492 1490 1488 1486 1484 1483 1481 1479 1477 1474 1472 1470 1468 1467 1466 1466 1466 1465 1464 1464 1464 1464 1465 1465 1464 1465 1466 1467 1467 1467 1466 1467 1467 1468 1469 1469 1472 1473 1476 1479 1482 1486 1490
1489 1487 1485 1482 1480 1479 1477 1474 1472 1470 1467 1465 1463 1462 1461 1460 1459 1459 1458 1458 1457 1458 1458 1458 1458 1458 1460 1461 1461 1462 1462 1462 1462 1464 1465 1465 1467 1469 1471 1474 1477 1480 1484
1485 1483 1481 1479 1476 1474 1472 1470 1468 1465 1462 1460 1459 1457 1456 1455 1454 1453 1453 1452 1451 1452 1452 1452 1452 1452 1453 1454 1455 1456 1456 1457 1457 1458 1460 1461 1462 1464 1466 1468 1471 1474 1478
1481 1479 1476 1475 1472 1470 1468 1465 1463 1461 1458 1456 1454 1453 1452 1450 1449 1448 1448 1447 1446 1446 1446 1446 1446 1446 1446 1447 1448 1449 1450 1452 1453 1454 1455 1457 1458 1460 1463 1464 1467 1470 1473